Time,TemperatureF,DewpointF,PressureIn,WindDirection,WindDirectionDegrees,WindSpeedMPH,WindSpeedGustMPH,Humidity,HourlyPrecipIn,Conditions,Clouds,dailyrainin,SolarRadiationWatts/m^2,SoftwareType,DateUTC
2013-06-08 00:02:00,68.0,40.0,29.88,SSW,204,16.0,23.0,36,-99.99,,,-99.99,0.000000,,2013-06-08 06:02:00,
2013-06-08 00:12:00,68.0,41.0,29.88,SSW,206,15.0,20.0,37,-99.99,,,-99.99,0.000000,,2013-06-08 06:12:00,
2013-06-08 00:21:00,68.0,41.0,29.88,SSW,206,16.0,21.0,37,-99.99,,,-99.99,0.000000,,2013-06-08 06:21:00,
2013-06-08 00:32:00,67.0,41.0,29.89,SSW,208,13.0,18.0,37,-99.99,,,-99.99,-0.200000,,2013-06-08 06:32:00,
2013-06-08 00:42:00,67.0,41.0,29.89,SSW,206,13.0,19.0,39,-99.99,,,-99.99,0.000000,,2013-06-08 06:42:00,
2013-06-08 00:52:00,67.0,40.0,29.90,SSW,204,15.0,19.0,38,-99.99,,,-99.99,0.000000,,2013-06-08 06:52:00,
2013-06-08 01:02:00,67.0,40.0,29.91,SSW,202,9.0,15.0,38,-99.99,,,-99.99,-0.100000,,2013-06-08 07:02:00,
2013-06-08 01:11:00,67.0,40.0,29.91,SSW,198,13.0,19.0,38,-99.99,,,-99.99,-0.100000,,2013-06-08 07:11:00,
2013-06-08 01:32:00,66.0,41.0,29.92,SSW,201,13.0,20.0,40,-99.99,,,-99.99,-0.100000,,2013-06-08 07:32:00,
2013-06-08 01:42:00,65.0,41.0,29.92,SSW,202,9.0,15.0,40,-99.99,,,-99.99,-0.100000,,2013-06-08 07:42:00,
2013-06-08 01:52:00,65.0,41.0,29.92,SSW,199,12.0,15.0,41,-99.99,,,-99.99,0.000000,,2013-06-08 07:52:00,
2013-06-08 02:02:00,65.0,41.0,29.92,SSW,204,12.0,17.0,41,-99.99,,,-99.99,-0.100000,,2013-06-08 08:02:00,
2013-06-08 02:11:00,64.0,41.0,29.93,SSW,208,10.0,13.0,42,-99.99,,,-99.99,-0.100000,,2013-06-08 08:11:00,
2013-06-08 02:22:00,64.0,41.0,29.93,SSW,208,10.0,13.0,42,-99.99,,,-99.99,-0.100000,,2013-06-08 08:22:00,
2013-06-08 02:32:00,63.0,41.0,29.93,SSW,207,11.0,14.0,44,-99.99,,,-99.99,-0.100000,,2013-06-08 08:32:00,
2013-06-08 02:41:00,63.0,41.0,29.94,SSW,208,10.0,13.0,44,-99.99,,,-99.99,-0.100000,,2013-06-08 08:41:00,
2013-06-08 02:52:00,62.0,42.0,29.94,SSW,197,8.0,11.0,47,-99.99,,,-99.99,0.000000,,2013-06-08 08:52:00,
2013-06-08 03:01:00,62.0,42.0,29.95,SSW,194,7.0,10.0,48,-99.99,,,-99.99,0.000000,,2013-06-08 09:01:00,
2013-06-08 03:11:00,61.0,42.0,29.95,South,191,7.0,9.0,50,-99.99,,,-99.99,0.000000,,2013-06-08 09:11:00,
2013-06-08 03:22:00,60.0,42.0,29.95,South,188,6.0,7.0,51,-99.99,,,-99.99,0.200000,,2013-06-08 09:22:00,
2013-06-08 03:33:00,59.0,43.0,29.95,South,183,4.0,6.0,54,-99.99,,,-99.99,0.000000,,2013-06-08 09:33:00,
2013-06-08 03:42:00,60.0,42.0,29.96,South,190,5.0,8.0,51,-99.99,,,-99.99,0.100000,,2013-06-08 09:42:00,
2013-06-08 03:52:00,59.0,42.0,29.96,South,183,5.0,8.0,53,-99.99,,,-99.99,0.000000,,2013-06-08 09:52:00,
2013-06-08 04:02:00,59.0,42.0,29.97,South,179,6.0,9.0,52,-99.99,,,-99.99,0.000000,,2013-06-08 10:02:00,
2013-06-08 04:12:00,59.0,42.0,29.97,South,177,6.0,8.0,54,-99.99,,,-99.99,0.000000,,2013-06-08 10:12:00,
2013-06-08 04:22:00,58.0,43.0,29.97,South,174,6.0,8.0,56,-99.99,,,-99.99,-0.100000,,2013-06-08 10:22:00,
2013-06-08 04:33:00,58.0,42.0,29.98,South,176,5.0,7.0,55,-99.99,,,-99.99,-0.100000,,2013-06-08 10:33:00,
2013-06-08 04:42:00,58.0,42.0,29.98,SSE,168,5.0,6.0,55,-99.99,,,-99.99,-0.100000,,2013-06-08 10:42:00,
2013-06-08 04:52:00,57.0,43.0,29.99,South,170,5.0,8.0,58,-99.99,,,-99.99,0.100000,,2013-06-08 10:52:00,
2013-06-08 05:02:00,58.0,42.0,29.99,South,183,5.0,6.0,55,-99.99,,,-99.99,-0.200000,,2013-06-08 11:02:00,
2013-06-08 05:11:00,57.0,42.0,30.00,South,182,5.0,7.0,57,-99.99,,,-99.99,-0.100000,,2013-06-08 11:11:00,
2013-06-08 05:21:00,55.0,43.0,30.00,WSW,241,2.0,3.0,61,-99.99,,,-99.99,0.000000,,2013-06-08 11:21:00,
2013-06-08 05:32:00,55.0,42.0,30.01,NE,53,5.0,8.0,61,-99.99,,,-99.99,0.100000,,2013-06-08 11:32:00,
2013-06-08 05:42:00,53.0,43.0,30.02,SSE,154,2.0,4.0,67,-99.99,,,-99.99,0.000000,,2013-06-08 11:42:00,
2013-06-08 05:52:00,54.0,43.0,30.02,South,180,4.0,5.0,67,-99.99,,,-99.99,0.900000,,2013-06-08 11:52:00,
2013-06-08 06:01:00,53.0,42.0,30.02,SSE,160,3.0,4.0,66,-99.99,,,-99.99,2.000000,,2013-06-08 12:01:00,
2013-06-08 06:11:00,51.0,42.0,30.03,ENE,77,2.0,2.0,71,-99.99,,,-99.99,5.200000,,2013-06-08 12:11:00,
2013-06-08 06:21:00,50.0,41.0,30.03,ESE,122,3.0,4.0,71,-99.99,,,-99.99,10.000000,,2013-06-08 12:21:00,
2013-06-08 06:32:00,50.0,42.0,30.03,South,170,4.0,5.0,72,-99.99,,,-99.99,25.400000,,2013-06-08 12:32:00,
2013-06-08 06:42:00,51.0,42.0,30.03,WSW,244,4.0,6.0,70,-99.99,,,-99.99,51.000000,,2013-06-08 12:42:00,
2013-06-08 06:52:00,54.0,42.0,30.04,South,185,5.0,7.0,63,-99.99,,,-99.99,80.199997,,2013-06-08 12:52:00,
2013-06-08 07:02:00,56.0,44.0,30.04,SSW,195,6.0,8.0,64,-99.99,,,-99.99,113.300003,,2013-06-08 13:02:00,
2013-06-08 07:11:00,57.0,43.0,30.05,SSW,212,3.0,4.0,59,-99.99,,,-99.99,141.300003,,2013-06-08 13:11:00,
2013-06-08 07:21:00,57.0,44.0,30.05,SW,217,4.0,6.0,61,-99.99,,,-99.99,168.899994,,2013-06-08 13:21:00,
2013-06-08 07:32:00,58.0,45.0,30.05,SSW,206,5.0,7.0,60,-99.99,,,-99.99,197.699997,,2013-06-08 13:32:00,
2013-06-08 07:42:00,59.0,46.0,30.05,SSW,200,4.0,6.0,61,-99.99,,,-99.99,229.100006,,2013-06-08 13:42:00,
2013-06-08 07:52:00,60.0,45.0,30.05,SSW,200,5.0,6.0,58,-99.99,,,-99.99,260.799988,,2013-06-08 13:52:00,
2013-06-08 08:02:00,61.0,46.0,30.06,SW,221,4.0,6.0,57,-99.99,,,-99.99,292.700012,,2013-06-08 14:02:00,
2013-06-08 08:11:00,62.0,46.0,30.06,SSW,207,5.0,7.0,57,-99.99,,,-99.99,325.000000,,2013-06-08 14:11:00,
2013-06-08 08:21:00,62.0,46.0,30.06,SSW,211,5.0,7.0,56,-99.99,,,-99.99,358.200012,,2013-06-08 14:21:00,
2013-06-08 08:32:00,63.0,46.0,30.06,SW,217,6.0,8.0,54,-99.99,,,-99.99,392.100006,,2013-06-08 14:32:00,
2013-06-08 08:42:00,63.0,47.0,30.06,SW,216,8.0,12.0,55,-99.99,,,-99.99,425.399994,,2013-06-08 14:42:00,
2013-06-08 08:52:00,62.0,48.0,30.07,SW,218,9.0,12.0,58,-99.99,,,-99.99,459.100006,,2013-06-08 14:52:00,
2013-06-08 09:02:00,62.0,49.0,30.07,SSW,212,10.0,13.0,61,-99.99,,,-99.99,491.600006,,2013-06-08 15:02:00,
2013-06-08 09:11:00,62.0,49.0,30.07,SSW,209,9.0,11.0,63,-99.99,,,-99.99,525.700012,,2013-06-08 15:11:00,
2013-06-08 09:21:00,63.0,50.0,30.07,SSW,207,9.0,11.0,63,-99.99,,,-99.99,558.799988,,2013-06-08 15:21:00,
2013-06-08 09:32:00,63.0,51.0,30.06,SSW,197,9.0,13.0,64,-99.99,,,-99.99,590.200012,,2013-06-08 15:32:00,
2013-06-08 09:42:00,64.0,49.0,30.07,SSW,199,12.0,16.0,58,-99.99,,,-99.99,621.099976,,2013-06-08 15:42:00,
2013-06-08 09:53:00,64.0,49.0,30.07,SSW,210,9.0,14.0,57,-99.99,,,-99.99,651.200012,,2013-06-08 15:53:00,
2013-06-08 10:02:00,65.0,48.0,30.07,SSW,195,10.0,14.0,54,-99.99,,,-99.99,681.799988,,2013-06-08 16:02:00,
2013-06-08 10:12:00,65.0,47.0,30.07,SSW,205,9.0,12.0,50,-99.99,,,-99.99,713.400024,,2013-06-08 16:12:00,
2013-06-08 10:22:00,66.0,47.0,30.07,SSW,208,9.0,12.0,50,-99.99,,,-99.99,740.900024,,2013-06-08 16:22:00,
2013-06-08 10:32:00,66.0,47.0,30.07,SSW,204,8.0,12.0,50,-99.99,,,-99.99,769.099976,,2013-06-08 16:32:00,
2013-06-08 10:42:00,66.0,46.0,30.07,SSW,213,9.0,13.0,48,-99.99,,,-99.99,794.900024,,2013-06-08 16:42:00,
2013-06-08 10:53:00,67.0,46.0,30.07,SSW,211,9.0,12.0,48,-99.99,,,-99.99,820.000000,,2013-06-08 16:53:00,
2013-06-08 11:02:00,67.0,46.0,30.07,SW,216,9.0,13.0,46,-99.99,,,-99.99,845.000000,,2013-06-08 17:02:00,
2013-06-08 11:22:00,67.0,45.0,30.07,SW,218,7.0,12.0,44,-99.99,,,-99.99,888.000000,,2013-06-08 17:22:00,
2013-06-08 11:32:00,68.0,46.0,30.07,SW,220,7.0,10.0,45,-99.99,,,-99.99,908.000000,,2013-06-08 17:32:00,
2013-06-08 11:42:00,68.0,44.0,30.07,SSW,208,9.0,12.0,43,-99.99,,,-99.99,928.000000,,2013-06-08 17:42:00,
2013-06-08 11:52:00,68.0,45.0,30.07,SSW,198,9.0,14.0,44,-99.99,,,-99.99,945.000000,,2013-06-08 17:52:00,
2013-06-08 12:02:00,69.0,45.0,30.07,SSW,209,7.0,13.0,41,-99.99,,,-99.99,962.000000,,2013-06-08 18:02:00,
2013-06-08 12:11:00,69.0,44.0,30.07,SSW,207,10.0,13.0,40,-99.99,,,-99.99,977.000000,,2013-06-08 18:11:00,
2013-06-08 12:22:00,69.0,44.0,30.07,SSW,193,10.0,14.0,39,-99.99,,,-99.99,991.000000,,2013-06-08 18:22:00,
2013-06-08 12:32:00,69.0,44.0,30.07,SW,215,9.0,13.0,40,-99.99,,,-99.99,1001.000000,,2013-06-08 18:32:00,
2013-06-08 12:41:00,70.0,44.0,30.07,SW,216,10.0,14.0,39,-99.99,,,-99.99,1011.000000,,2013-06-08 18:41:00,
2013-06-08 12:52:00,70.0,44.0,30.06,South,182,9.0,13.0,39,-99.99,,,-99.99,1020.000000,,2013-06-08 18:52:00,
2013-06-08 13:21:00,71.0,44.0,30.07,South,191,11.0,14.0,38,-99.99,,,-99.99,1036.000000,,2013-06-08 19:21:00,
2013-06-08 13:32:00,72.0,44.0,30.06,SW,215,10.0,14.0,36,-99.99,,,-99.99,1041.000000,,2013-06-08 19:32:00,
2013-06-08 13:42:00,72.0,44.0,30.06,SW,215,9.0,14.0,37,-99.99,,,-99.99,1043.000000,,2013-06-08 19:42:00,
2013-06-08 13:52:00,72.0,43.0,30.06,SSW,209,11.0,14.0,34,-99.99,,,-99.99,1043.000000,,2013-06-08 19:52:00,
2013-06-08 14:02:00,72.0,42.0,30.06,SSW,208,10.0,15.0,33,-99.99,,,-99.99,1041.000000,,2013-06-08 20:02:00,
2013-06-08 14:11:00,73.0,41.0,30.06,SSW,208,9.0,15.0,32,-99.99,,,-99.99,1037.000000,,2013-06-08 20:11:00,
2013-06-08 14:22:00,73.0,41.0,30.06,SSW,212,10.0,14.0,31,-99.99,,,-99.99,1033.000000,,2013-06-08 20:22:00,
2013-06-08 14:32:00,74.0,41.0,30.06,SSW,207,10.0,16.0,30,-99.99,,,-99.99,1025.000000,,2013-06-08 20:32:00,
2013-06-08 14:42:00,74.0,41.0,30.05,SSW,206,11.0,16.0,30,-99.99,,,-99.99,1019.000000,,2013-06-08 20:42:00,
2013-06-08 14:52:00,75.0,42.0,30.05,SSW,212,11.0,16.0,31,-99.99,,,-99.99,1010.000000,,2013-06-08 20:52:00,
2013-06-08 15:02:00,75.0,42.0,30.04,SSW,212,12.0,18.0,31,-99.99,,,-99.99,998.000000,,2013-06-08 21:02:00,
2013-06-08 15:11:00,75.0,40.0,30.04,SW,226,14.0,19.0,29,-99.99,,,-99.99,988.000000,,2013-06-08 21:11:00,
2013-06-08 15:22:00,75.0,41.0,30.04,SSW,206,15.0,19.0,29,-99.99,,,-99.99,975.000000,,2013-06-08 21:22:00,
2013-06-08 15:33:00,76.0,42.0,30.04,SW,216,13.0,21.0,30,-99.99,,,-99.99,960.000000,,2013-06-08 21:33:00,
2013-06-08 15:43:00,75.0,41.0,30.04,SSW,211,15.0,21.0,29,-99.99,,,-99.99,945.000000,,2013-06-08 21:43:00,
2013-06-08 15:52:00,76.0,42.0,30.03,SSW,200,14.0,20.0,30,-99.99,,,-99.99,927.000000,,2013-06-08 21:52:00,
2013-06-08 16:02:00,76.0,40.0,30.03,SW,214,14.0,20.0,27,-99.99,,,-99.99,911.000000,,2013-06-08 22:02:00,
2013-06-08 16:12:00,76.0,39.0,30.03,SSW,206,14.0,20.0,26,-99.99,,,-99.99,894.000000,,2013-06-08 22:12:00,
2013-06-08 16:22:00,76.0,38.0,30.03,SSW,211,14.0,21.0,25,-99.99,,,-99.99,872.000000,,2013-06-08 22:22:00,
2013-06-08 16:33:00,77.0,40.0,30.03,SSW,205,14.0,21.0,26,-99.99,,,-99.99,851.000000,,2013-06-08 22:33:00,
2013-06-08 16:42:00,77.0,39.0,30.02,SSW,204,14.0,21.0,25,-99.99,,,-99.99,828.000000,,2013-06-08 22:42:00,
2013-06-08 16:52:00,77.0,40.0,30.02,SSW,203,13.0,20.0,26,-99.99,,,-99.99,806.000000,,2013-06-08 22:52:00,
2013-06-08 17:01:00,77.0,39.0,30.02,SSW,196,15.0,22.0,25,-99.99,,,-99.99,780.799988,,2013-06-08 23:01:00,
2013-06-08 17:11:00,78.0,39.0,30.02,SSW,204,17.0,25.0,24,-99.99,,,-99.99,756.000000,,2013-06-08 23:11:00,
2013-06-08 17:21:00,77.0,39.0,30.02,SSW,204,15.0,20.0,25,-99.99,,,-99.99,728.000000,,2013-06-08 23:21:00,
2013-06-08 17:32:00,78.0,39.0,30.01,SSW,200,15.0,20.0,25,-99.99,,,-99.99,699.900024,,2013-06-08 23:32:00,
2013-06-08 17:41:00,78.0,38.0,30.01,SSW,198,15.0,22.0,24,-99.99,,,-99.99,671.299988,,2013-06-08 23:41:00,
2013-06-08 17:52:00,78.0,39.0,30.01,SSW,196,14.0,22.0,24,-99.99,,,-99.99,643.299988,,2013-06-08 23:52:00,
2013-06-08 18:01:00,78.0,38.0,30.00,SSW,203,16.0,23.0,24,-99.99,,,-99.99,614.400024,,2013-06-09 00:01:00,
2013-06-08 18:11:00,78.0,36.0,30.00,South,190,17.0,24.0,22,-99.99,,,-99.99,584.099976,,2013-06-09 00:11:00,
2013-06-08 18:21:00,78.0,35.0,29.99,South,188,16.0,24.0,21,-99.99,,,-99.99,552.599976,,2013-06-09 00:21:00,
2013-06-08 18:32:00,78.0,36.0,29.99,SSW,204,15.0,23.0,21,-99.99,,,-99.99,522.599976,,2013-06-09 00:32:00,
2013-06-08 18:42:00,78.0,37.0,29.99,SSW,203,15.0,20.0,22,-99.99,,,-99.99,490.399994,,2013-06-09 00:42:00,
2013-06-08 18:51:00,78.0,36.0,29.98,SSW,199,13.0,20.0,22,-99.99,,,-99.99,456.700012,,2013-06-09 00:51:00,
2013-06-08 19:02:00,78.0,35.0,29.99,SSW,199,15.0,23.0,21,-99.99,,,-99.99,420.799988,,2013-06-09 01:02:00,
2013-06-08 19:11:00,78.0,37.0,29.99,SSW,205,13.0,20.0,22,-99.99,,,-99.99,384.399994,,2013-06-09 01:11:00,
2013-06-08 19:21:00,77.0,35.0,29.99,SSW,201,13.0,20.0,22,-99.99,,,-99.99,349.100006,,2013-06-09 01:21:00,
2013-06-08 19:32:00,77.0,34.0,29.99,SSW,204,15.0,21.0,20,-99.99,,,-99.99,313.600006,,2013-06-09 01:32:00,
2013-06-08 19:41:00,77.0,35.0,29.99,SSW,202,12.0,17.0,21,-99.99,,,-99.99,279.100006,,2013-06-09 01:41:00,
2013-06-08 19:52:00,77.0,34.0,29.98,SSW,203,13.0,21.0,20,-99.99,,,-99.99,245.199997,,2013-06-09 01:52:00,
2013-06-08 20:02:00,76.0,32.0,29.99,SSW,201,14.0,23.0,19,-99.99,,,-99.99,213.600006,,2013-06-09 02:02:00,
2013-06-08 20:11:00,76.0,32.0,29.99,SSW,202,13.0,19.0,19,-99.99,,,-99.99,182.500000,,2013-06-09 02:11:00,
2013-06-08 20:21:00,76.0,34.0,29.98,SSW,199,12.0,19.0,21,-99.99,,,-99.99,152.800003,,2013-06-09 02:21:00,
2013-06-08 20:32:00,75.0,34.0,29.98,SSW,201,12.0,18.0,22,-99.99,,,-99.99,124.400002,,2013-06-09 02:32:00,
2013-06-08 20:41:00,74.0,34.0,29.98,SSW,200,11.0,17.0,23,-99.99,,,-99.99,89.400002,,2013-06-09 02:41:00,
2013-06-08 20:52:00,74.0,35.0,29.99,SSW,201,12.0,17.0,23,-99.99,,,-99.99,37.200001,,2013-06-09 02:52:00,
2013-06-08 21:02:00,73.0,35.0,29.99,SSW,205,11.0,15.0,24,-99.99,,,-99.99,17.100000,,2013-06-09 03:02:00,
2013-06-08 21:11:00,72.0,34.0,29.99,SSW,205,10.0,14.0,25,-99.99,,,-99.99,12.100000,,2013-06-09 03:11:00,
2013-06-08 21:21:00,72.0,34.0,29.99,SSW,205,11.0,17.0,25,-99.99,,,-99.99,7.100000,,2013-06-09 03:21:00,
2013-06-08 21:32:00,72.0,33.0,29.99,SSW,205,13.0,17.0,23,-99.99,,,-99.99,3.100000,,2013-06-09 03:32:00,
2013-06-08 21:43:00,71.0,32.0,29.99,SSW,202,11.0,15.0,24,-99.99,,,-99.99,1.100000,,2013-06-09 03:43:00,
2013-06-08 21:53:00,71.0,32.0,29.99,SSW,201,11.0,17.0,23,-99.99,,,-99.99,0.000000,,2013-06-09 03:53:00,
2013-06-08 22:02:00,72.0,31.0,29.99,SSW,197,11.0,17.0,22,-99.99,,,-99.99,-0.200000,,2013-06-09 04:02:00,
2013-06-08 22:12:00,71.0,31.0,30.00,SSW,194,12.0,17.0,22,-99.99,,,-99.99,-0.100000,,2013-06-09 04:12:00,
2013-06-08 22:22:00,70.0,31.0,30.00,SSW,195,10.0,15.0,23,-99.99,,,-99.99,-0.200000,,2013-06-09 04:22:00,
2013-06-08 22:32:00,71.0,29.0,30.00,SSW,194,12.0,17.0,21,-99.99,,,-99.99,0.100000,,2013-06-09 04:32:00,
2013-06-08 22:42:00,71.0,28.0,30.00,SSW,194,13.0,18.0,20,-99.99,,,-99.99,-0.100000,,2013-06-09 04:42:00,
2013-06-08 22:52:00,71.0,29.0,30.00,SSW,198,13.0,17.0,21,-99.99,,,-99.99,-0.200000,,2013-06-09 04:52:00,
2013-06-08 23:02:00,70.0,30.0,30.01,SSW,198,12.0,20.0,22,-99.99,,,-99.99,0.000000,,2013-06-09 05:02:00,
2013-06-08 23:11:00,70.0,30.0,30.01,SSW,199,14.0,20.0,22,-99.99,,,-99.99,0.000000,,2013-06-09 05:11:00,
2013-06-08 23:21:00,70.0,30.0,30.01,SSW,199,15.0,21.0,22,-99.99,,,-99.99,0.000000,,2013-06-09 05:21:00,
2013-06-08 23:32:00,70.0,32.0,30.01,SSW,199,13.0,19.0,24,-99.99,,,-99.99,-0.100000,,2013-06-09 05:32:00,
2013-06-08 23:42:00,70.0,31.0,30.00,SSW,196,15.0,22.0,24,-99.99,,,-99.99,0.000000,,2013-06-09 05:42:00,
2013-06-08 23:52:00,69.0,32.0,30.00,SSW,196,15.0,21.0,25,-99.99,,,-99.99,0.000000,,2013-06-09 05:52:00,